Погода в Медикасах

Россия / Чувашская Республика     55°42′03″N   47°20′31″E
темп.,
°C
ветер,
м/с
пор.,
м/с
влажн.,
%
обл.,
%
осадки,
мм/ч
давл.,
гПа
погр.,
м
12 мая, ср
ср1200:00+14всв34866 0.2 102655
03:00+13св338829 0.2 102737
06:00+15в25815 0.0 1027152
09:00+21вюв575622 0.0 1026567
12:00+24вюв45455 0.0 10261554
15:00+24вюв574111 0.0 10252627
18:00+20вюв3561100 0.0 102489
21:00+17юв336611 0.0 102548
13 мая, чт
чт1300:00+16юв3465100 0.0 102562
03:00+14вюв33745 0.0 102527
06:00+16вюв397546 0.0 1025249
09:00+18вюв496837 0.0 1025409
12:00+22юв71151100 0.0 10231087
15:00+20ююв7968100 0.1 1022787
18:00+18вюв5127685 0.0 1021499
21:00+16юв5127789 0.0 1020260
14 мая, пт
пт1400:00+15ю41478100 0.0 1020338
03:00+13ююв33880 0.0 102151
06:00+15ю248434 0.0 1021140
09:00+20ю2370100 0.0 1021489
12:00+24ю3558100 0.0 10211216
15:00+24ююв4661100 0.1 10201351
18:00+22ююв49645 0.3 1019259
21:00+17ююв377280 0.3 1019109
15 мая, сб
сб1500:00+16ююв3676100 0.0 101990
03:00+15ююв3475100 0.0 101958
06:00+17ююв387290 0.0 1019214
09:00+22ю5853100 0.0 1018434
12:00+27ю61142100 0.0 10181316
15:00+27ю5104296 0.0 10171517
18:00+23ю512575 0.0 1017274
21:00+17ююв413645 0.0 1017211
16 мая, вс
вс1600:00+16ю36659 0.0 101678
03:00+15ююв356152 0.0 101667
06:00+17ю31369100 0.0 1016331
09:00+24ю6125279 0.0 1015602
12:00+27ююз61044100 0.0 10151405
15:00+27ююз69470 0.0 10141461
18:00+23ююз496195 0.0 1014249
21:00+19ююз3570100 0.0 101462